User: anonymous   Login
Location: Meriden
(44.0740°N, 93.3870°W)
Time: 08:10:43
(UTC-05:00)
Language:

Hamsat - Orbit

View from above orbital plane
View from above orbital plane
View from above satellite
View from above satellite

Ground track
Ground track

The orbit data is extracted from the following two-line orbital elements,

1 28650U 05017B   15110.76595156  .00003088  00000-0  34755-3 0  9992
2 28650 097.5728 105.8461 0023143 218.5566 141.3998 14.87173629538911
Epoch (UTC): 20 April 2015 18:22:58
Eccentricity: 0.0023143
inclination: 97.5728°
perigee height: 590 km
apogee height: 623 km
right ascension of ascending node: 105.8461°
argument of perigee: 218.5566°
revolutions per day: 14.87173629
mean anomaly at epoch: 141.3998°
orbit number at epoch: 53891

The dashed part of the orbit path shows where the satellite is in the earth's shadow,  

DLR